LNK253F FMMI-FAOR

Flight info

Callsign LNK253F
Flight time N/A
Altitude 38000
Route LIKID1E TW DCT SOPVI UB536 EROPA/N0420F280 UB536 ETIVI/N0458F400 UT444 PKV UT446 WIV WIV4A
Aircraft E190/M-SDE3GILORVW/S

Departure

Time 2026-04-23 14:05
Airport Ivato International Airport (FMMI)

Arrival

Time N/A
Airport O.R. Tambo International Airport (FAOR)
Time Latitude Longitude Altitude Speed Heading
2026-04-23 13:52 -18.79836 47.47419 4176 ft 0 kts 270°
2026-04-23 14:02 -18.79835 47.47418 4176 ft 0 kts 275°
2026-04-23 14:02 -18.79827 47.47412 4173 ft 5 kts 320°
2026-04-23 14:03 -18.79797 47.47392 4175 ft 6 kts 308°
2026-04-23 14:03 -18.79780 47.47341 4177 ft 9 kts 281°
2026-04-23 14:03 -18.79767 47.47265 4180 ft 11 kts 278°
2026-04-23 14:03 -18.79754 47.47192 4182 ft 9 kts 281°
2026-04-23 14:04 -18.79742 47.47135 4184 ft 6 kts 305°
2026-04-23 14:04 -18.79703 47.47128 4184 ft 7 kts
2026-04-23 14:04 -18.79635 47.47137 4184 ft 13 kts
2026-04-23 14:04 -18.79589 47.47172 4184 ft 0 kts 93°
2026-04-23 14:05 -18.79601 47.47258 4182 ft 42 kts 99°
2026-04-23 14:05 -18.79686 47.47827 4168 ft 114 kts 99°
2026-04-23 14:05 -18.79847 47.48870 4229 ft 165 kts 98°
2026-04-23 14:05 -18.80007 47.50070 5147 ft 162 kts 98°
2026-04-23 14:06 -18.80187 47.51290 5896 ft 179 kts 102°
2026-04-23 14:06 -18.80426 47.52696 6157 ft 211 kts 101°
2026-04-23 14:06 -18.80662 47.54300 6794 ft 222 kts 99°
2026-04-23 14:06 -18.80905 47.55978 7363 ft 242 kts 100°
2026-04-23 14:07 -18.81174 47.57802 7886 ft 261 kts 99°
2026-04-23 14:07 -18.81743 47.61693 9417 ft 274 kts 101°
2026-04-23 14:07 -18.82225 47.63667 10037 ft 283 kts 119°
2026-04-23 14:08 -18.83540 47.65254 10483 ft 298 kts 146°
2026-04-23 14:08 -18.85514 47.66006 11078 ft 309 kts 173°
2026-04-23 14:08 -18.87684 47.65775 11747 ft 317 kts 191°
2026-04-23 14:08 -18.89825 47.65201 12512 ft 321 kts 193°
2026-04-23 14:09 -18.91995 47.64583 13240 ft 324 kts 193°
2026-04-23 14:09 -18.94197 47.63968 13975 ft 326 kts 191°
2026-04-23 14:09 -18.96434 47.63540 14648 ft 328 kts 186°
2026-04-23 14:09 -18.98676 47.63153 15297 ft 333 kts 187°
2026-04-23 14:10 -19.00981 47.62770 15929 ft 337 kts 186°
2026-04-23 14:10 -19.03323 47.62392 16518 ft 341 kts 186°
2026-04-23 14:10 -19.05686 47.61998 17137 ft 345 kts 188°
2026-04-23 14:10 -19.07949 47.61090 17678 ft 356 kts 211°
2026-04-23 14:11 -19.09741 47.59245 18232 ft 367 kts 233°
2026-04-23 14:11 -19.10750 47.56748 18706 ft 377 kts 257°
2026-04-23 14:11 -19.10793 47.53965 19172 ft 384 kts 279°
2026-04-23 14:11 -19.09936 47.51278 19651 ft 388 kts 292°
2026-04-23 14:12 -19.08847 47.48662 20126 ft 390 kts 292°
2026-04-23 14:12 -19.07815 47.45992 20567 ft 393 kts 289°
2026-04-23 14:12 -19.06914 47.43287 20999 ft 396 kts 287°
2026-04-23 14:12 -19.06072 47.40504 21446 ft 399 kts 284°
2026-04-23 14:13 -19.05458 47.37640 21855 ft 400 kts 279°
2026-04-23 14:13 -19.04906 47.34748 22301 ft 402 kts 279°
2026-04-23 14:13 -19.04382 47.31824 22714 ft 405 kts 278°
2026-04-23 14:13 -19.03857 47.28889 23099 ft 408 kts 278°
2026-04-23 14:14 -19.03331 47.25933 23485 ft 410 kts 278°
2026-04-23 14:14 -19.02801 47.22966 23836 ft 412 kts 278°
2026-04-23 14:14 -19.02273 47.20015 24154 ft 414 kts 278°
2026-04-23 14:14 -19.01738 47.17021 24479 ft 415 kts 278°
2026-04-23 14:15 -19.01198 47.14017 24806 ft 416 kts 278°
2026-04-23 14:15 -19.00999 47.10985 25050 ft 413 kts 261°
2026-04-23 14:15 -19.01628 47.08044 25357 ft 409 kts 250°
2026-04-23 14:15 -19.02531 47.05196 25650 ft 409 kts 246°
2026-04-23 14:16 -19.03695 47.02460 25942 ft 408 kts 241°
2026-04-23 14:16 -19.04928 46.99756 26238 ft 409 kts 240°
2026-04-23 14:16 -19.06196 46.97051 26527 ft 410 kts 240°
2026-04-23 14:16 -19.07464 46.94346 26806 ft 412 kts 240°
2026-04-23 14:17 -19.08724 46.91664 27085 ft 413 kts 240°
2026-04-23 14:17 -19.10004 46.88937 27372 ft 414 kts 240°
2026-04-23 14:17 -19.11285 46.86203 27654 ft 416 kts 240°
2026-04-23 14:17 -19.12574 46.83458 27924 ft 417 kts 240°
2026-04-23 14:18 -19.13863 46.80703 28185 ft 418 kts 240°
2026-04-23 14:18 -19.15157 46.77940 28441 ft 420 kts 241°
2026-04-23 14:18 -19.16432 46.75154 28701 ft 421 kts 240°
2026-04-23 14:18 -19.17772 46.72398 28948 ft 422 kts 240°
2026-04-23 14:19 -19.19105 46.69627 29200 ft 423 kts 240°
2026-04-23 14:19 -19.20448 46.66850 29450 ft 424 kts 240°
2026-04-23 14:19 -19.21794 46.64064 29670 ft 426 kts 240°
2026-04-23 14:19 -19.23145 46.61266 29835 ft 429 kts 239°
2026-04-23 14:20 -19.25854 46.55601 30070 ft 435 kts 240°
2026-04-23 14:20 -19.27214 46.52700 30334 ft 434 kts 241°
2026-04-23 14:20 -19.28538 46.49876 30570 ft 434 kts 241°
2026-04-23 14:21 -19.29877 46.47012 30795 ft 433 kts 240°
2026-04-23 14:21 -19.31215 46.44155 31028 ft 433 kts 240°
2026-04-23 14:21 -19.32550 46.41298 31276 ft 432 kts 240°
2026-04-23 14:21 -19.33881 46.38450 31483 ft 432 kts 240°
2026-04-23 14:22 -19.35211 46.35607 31734 ft 430 kts 240°
2026-04-23 14:22 -19.36541 46.32756 31980 ft 429 kts 240°
2026-04-23 14:22 -19.37866 46.29921 32216 ft 429 kts 240°
2026-04-23 14:22 -19.39183 46.27096 32470 ft 428 kts 240°
2026-04-23 14:23 -19.40501 46.24270 32710 ft 427 kts 240°
2026-04-23 14:23 -19.41819 46.21444 32941 ft 426 kts 240°
2026-04-23 14:23 -19.43115 46.18660 33166 ft 426 kts 240°
2026-04-23 14:23 -19.44441 46.15816 33389 ft 425 kts 240°
2026-04-23 14:24 -19.45734 46.13035 33602 ft 425 kts 240°
2026-04-23 14:24 -19.47041 46.10227 33828 ft 424 kts 240°
2026-04-23 14:24 -19.48345 46.07422 34031 ft 424 kts 240°
2026-04-23 14:24 -19.49647 46.04621 34199 ft 424 kts 240°
2026-04-23 14:25 -19.50948 46.01821 34369 ft 423 kts 240°
2026-04-23 14:25 -19.52249 45.99020 34546 ft 423 kts 240°
2026-04-23 14:25 -19.53549 45.96218 34712 ft 422 kts 240°
2026-04-23 14:25 -19.54842 45.93431 34851 ft 422 kts 240°
2026-04-23 14:26 -19.57420 45.87866 35155 ft 422 kts 240°
2026-04-23 14:26 -19.58712 45.85077 35325 ft 421 kts 240°
2026-04-23 14:26 -19.60003 45.82290 35474 ft 421 kts 240°
2026-04-23 14:27 -19.61294 45.79502 35645 ft 421 kts 240°
2026-04-23 14:27 -19.62585 45.76713 35792 ft 420 kts 240°
2026-04-23 14:27 -19.63872 45.73928 35946 ft 420 kts 240°
2026-04-23 14:27 -19.65155 45.71145 36085 ft 420 kts 240°
2026-04-23 14:28 -19.66440 45.68364 36246 ft 420 kts 240°
2026-04-23 14:28 -19.67725 45.65581 36399 ft 420 kts 241°
2026-04-23 14:28 -19.69008 45.62799 36586 ft 419 kts 240°
2026-04-23 14:28 -19.70293 45.60011 36736 ft 419 kts 241°
2026-04-23 14:29 -19.71573 45.57234 36883 ft 419 kts 241°
2026-04-23 14:29 -19.72833 45.54497 37022 ft 419 kts 241°
2026-04-23 14:29 -19.74113 45.51720 37170 ft 418 kts 241°
2026-04-23 14:29 -19.75392 45.48941 37319 ft 418 kts 240°
2026-04-23 14:30 -19.76669 45.46167 37456 ft 418 kts 241°
2026-04-23 14:30 -19.77943 45.43394 37602 ft 418 kts 241°
2026-04-23 14:30 -19.79217 45.40626 37736 ft 414 kts 241°
2026-04-23 14:30 -19.80459 45.37915 37819 ft 407 kts 241°
2026-04-23 14:31 -19.82956 45.32477 37902 ft 412 kts 241°
2026-04-23 14:31 -19.85485 45.26961 37909 ft 418 kts 241°
2026-04-23 14:32 -19.88033 45.21400 37901 ft 424 kts 241°
2026-04-23 14:32 -19.90634 45.15718 37905 ft 430 kts 242°
2026-04-23 14:33 -19.93267 45.09956 37907 ft 436 kts 242°
2026-04-23 14:33 -19.95934 45.04115 37901 ft 442 kts 242°
2026-04-23 14:34 -19.98171 44.99213 37907 ft 446 kts 242°
2026-04-23 14:34 -20.00895 44.93238 37902 ft 451 kts 242°
2026-04-23 14:35 -20.03639 44.87210 37905 ft 455 kts 242°
2026-04-23 14:35 -20.06414 44.81108 37911 ft 460 kts 242°
2026-04-23 14:36 -20.09192 44.74995 37901 ft 464 kts 242°
2026-04-23 14:36 -20.12006 44.68795 37908 ft 468 kts 242°
2026-04-23 14:37 -20.14825 44.62574 37900 ft 465 kts 242°
2026-04-23 14:37 -20.17632 44.56375 37904 ft 465 kts 243°
2026-04-23 14:38 -20.20434 44.50179 37909 ft 464 kts 243°
2026-04-23 14:38 -20.23235 44.43980 37905 ft 464 kts 243°
2026-04-23 14:39 -20.26029 44.37787 37907 ft 463 kts 243°
2026-04-23 14:39 -20.28827 44.31669 37912 ft 462 kts 239°
2026-04-23 14:40 -20.31966 44.25687 37906 ft 462 kts 239°
2026-04-23 14:40 -20.35131 44.19734 37899 ft 457 kts 239°
2026-04-23 14:41 -20.38267 44.13828 37926 ft 458 kts 239°
2026-04-23 14:41 -20.41414 44.07896 37920 ft 460 kts 239°
2026-04-23 14:42 -20.44558 44.01967 37908 ft 459 kts 240°
2026-04-23 14:42 -20.47678 43.96065 37906 ft 455 kts 239°
2026-04-23 14:43 -20.50792 43.90169 37926 ft 456 kts 239°
2026-04-23 14:43 -20.53896 43.84290 37919 ft 457 kts 239°
2026-04-23 14:44 -20.57002 43.78404 37928 ft 455 kts 240°
2026-04-23 14:44 -20.60103 43.72528 37906 ft 454 kts 240°
2026-04-23 14:45 -20.63186 43.66658 37928 ft 452 kts 240°
2026-04-23 14:45 -20.66262 43.60810 37929 ft 450 kts 240°
2026-04-23 14:46 -20.69322 43.54983 37932 ft 452 kts 240°
2026-04-23 14:46 -20.72393 43.49131 37928 ft 452 kts 240°
2026-04-23 14:47 -20.75461 43.43277 37917 ft 451 kts 240°
2026-04-23 14:47 -20.78530 43.37415 37942 ft 451 kts 240°
2026-04-23 14:48 -20.81599 43.31548 37943 ft 452 kts 240°
2026-04-23 14:48 -20.84668 43.25675 37942 ft 453 kts 240°
2026-04-23 14:49 -20.87715 43.19837 37929 ft 454 kts 240°
2026-04-23 14:49 -20.90775 43.13967 37952 ft 452 kts 240°
2026-04-23 14:50 -20.93838 43.08085 37952 ft 451 kts 240°
2026-04-23 14:50 -20.96900 43.02199 37951 ft 452 kts 240°
2026-04-23 14:51 -20.99947 42.96339 37963 ft 454 kts 240°
2026-04-23 14:51 -21.03005 42.90449 37954 ft 453 kts 240°
2026-04-23 14:52 -21.06062 42.84552 37953 ft 452 kts 240°
2026-04-23 14:52 -21.09123 42.78642 37961 ft 452 kts 240°
2026-04-23 14:53 -21.12173 42.72749 37954 ft 453 kts 240°
2026-04-23 14:53 -21.15218 42.66859 37972 ft 453 kts 240°
2026-04-23 14:54 -21.18249 42.60988 37955 ft 453 kts 241°
2026-04-23 14:54 -21.21297 42.55080 37966 ft 452 kts 241°
2026-04-23 14:55 -21.24337 42.49177 37987 ft 451 kts 241°
2026-04-23 14:55 -21.27375 42.43272 37981 ft 453 kts 241°
2026-04-23 14:56 -21.30413 42.37365 37984 ft 452 kts 241°
2026-04-23 14:56 -21.33452 42.31446 37978 ft 451 kts 241°
2026-04-23 14:57 -21.36461 42.25583 37988 ft 450 kts 241°
2026-04-23 14:57 -21.39481 42.19688 37997 ft 451 kts 241°
2026-04-23 14:58 -21.42500 42.13790 37986 ft 452 kts 241°
2026-04-23 14:58 -21.45520 42.07885 37988 ft 451 kts 241°
2026-04-23 14:59 -21.48537 42.01978 37996 ft 451 kts 242°
2026-04-23 14:59 -21.51553 41.96068 38002 ft 452 kts 242°
2026-04-23 15:00 -21.54579 41.90127 37998 ft 453 kts 242°
2026-04-23 15:00 -21.57593 41.84207 37999 ft 452 kts 242°
2026-04-23 15:01 -21.60590 41.78313 37999 ft 451 kts 242°
2026-04-23 15:01 -21.63603 41.72381 38009 ft 452 kts 242°
2026-04-23 15:02 -21.66616 41.66441 38014 ft 452 kts 242°
2026-04-23 15:02 -21.69623 41.60508 38012 ft 452 kts 242°
2026-04-23 15:03 -21.72633 41.54563 38020 ft 453 kts 242°
2026-04-23 15:03 -21.75637 41.48622 38019 ft 452 kts 242°
2026-04-23 15:04 -21.78643 41.42671 38023 ft 453 kts 242°
2026-04-23 15:04 -21.81629 41.36750 38016 ft 453 kts 242°
2026-04-23 15:05 -21.84632 41.30793 38015 ft 452 kts 242°
2026-04-23 15:05 -21.87625 41.24846 38020 ft 452 kts 242°
2026-04-23 15:06 -21.90616 41.18898 38020 ft 451 kts 242°
2026-04-23 15:06 -21.93604 41.12950 38027 ft 452 kts 242°
2026-04-23 15:07 -21.96587 41.07003 38030 ft 451 kts 242°
2026-04-23 15:07 -21.99572 41.01045 38034 ft 451 kts 242°
2026-04-23 15:08 -22.02535 40.95128 38030 ft 451 kts 242°
2026-04-23 15:09 -22.06992 40.86208 38026 ft 449 kts 242°
2026-04-23 15:09 -22.09959 40.80263 38026 ft 449 kts 242°
2026-04-23 15:10 -22.12418 40.75331 38045 ft 449 kts 242°
2026-04-23 15:10 -22.15874 40.68389 38037 ft 449 kts 242°
2026-04-23 15:11 -22.18831 40.62447 38023 ft 449 kts 242°
2026-04-23 15:11 -22.21765 40.56538 38030 ft 449 kts 242°
2026-04-23 15:12 -22.24714 40.50592 38052 ft 449 kts 243°
2026-04-23 15:12 -22.27659 40.44645 38039 ft 447 kts 243°
2026-04-23 15:13 -22.30596 40.38710 38036 ft 448 kts 243°
2026-04-23 15:13 -22.33533 40.32767 38045 ft 448 kts 243°
2026-04-23 15:14 -22.36465 40.26828 38049 ft 448 kts 243°
2026-04-23 15:14 -22.39389 40.20897 38041 ft 447 kts 243°
2026-04-23 15:15 -22.42293 40.14999 38054 ft 447 kts 243°
2026-04-23 15:15 -22.45211 40.09069 38050 ft 447 kts 243°
2026-04-23 15:16 -22.48130 40.03128 38051 ft 447 kts 243°
2026-04-23 15:16 -22.51042 39.97198 38054 ft 446 kts 243°